This is the latest recevied weather packets stored in our database for station/object WW3TRG. If no packets are shown the sender has not sent any weather packets the latest 10 day(s).
| Time | Temp. | Humidity | Pressure | Rain* | Wind** | Luminosity | Snow |
|---|---|---|---|---|---|---|---|
| 1777688123 | 9.44° C | 95% | 1011.4 hPa | 0 mm | - | 0 W/m² | - |
| 1777687820 | 9.44° C | 95% | 1011.3 hPa | 0 mm | - | 0 W/m² | - |
| 1777687518 | 9.44° C | 95% | 1011.4 hPa | 0 mm | - | 0 W/m² | - |
| 1777687215 | 9.44° C | 95% | 1011.3 hPa | 0 mm | - | 0 W/m² | - |
| 1777686913 | 9.44° C | 95% | 1011.3 hPa | 0 mm | - | 0 W/m² | - |
| 1777686609 | 10° C | 94% | 1011.4 hPa | 0 mm | - | 0 W/m² | - |
| 1777686306 | 10° C | 94% | 1011.1 hPa | 0 mm | - | 0 W/m² | - |
| 1777686003 | 10° C | 92% | 1011.2 hPa | 0 mm | - | 0 W/m² | - |
| 1777685698 | 10.56° C | 91% | 1011.1 hPa | 0 mm | - | 0 W/m² | - |
| 1777685395 | 10.56° C | 90% | 1011.1 hPa | 0 mm | - | 0 W/m² | - |
| 1777685092 | 10.56° C | 90% | 1011.3 hPa | 0 mm | - | 0 W/m² | - |
| 1777684790 | 10.56° C | 90% | 1011.2 hPa | 0 mm | - | 0 W/m² | - |
| 1777684485 | 11.11° C | 89% | 1011.2 hPa | 0 mm | - | 0 W/m² | - |
| 1777684183 | 11.11° C | 88% | 1011.3 hPa | 0 mm | - | 0 W/m² | - |
| 1777683880 | 11.67° C | 88% | 1011.1 hPa | 0 mm | - | 0 W/m² | - |
| 1777683575 | 11.67° C | 85% | 1011 hPa | 0 mm | - | 0 W/m² | - |
| 1777683273 | 11.67° C | 85% | 1011.2 hPa | 0 mm | - | 0 W/m² | - |
| 1777682972 | 11.67° C | 80% | 1011.3 hPa | 0 mm | - | 0 W/m² | - |
| 1777682667 | 12.22° C | 80% | 1011.1 hPa | 0 mm | - | 0 W/m² | - |
| 1777682364 | 12.22° C | 77% | 1010.9 hPa | 0 mm | - | 0 W/m² | - |
| 1777682062 | 12.78° C | 74% | 1010.8 hPa | 0 mm | - | 0 W/m² | - |
| 1777681758 | 12.78° C | 73% | 1010.8 hPa | 0 mm | - | 0 W/m² | - |
| 1777681455 | 12.78° C | 74% | 1010.8 hPa | 0 mm | - | 0 W/m² | - |
| 1777681153 | 12.78° C | 74% | 1011 hPa | 0 mm | - | 0 W/m² | - |
| 1777680850 | 13.33° C | 67% | 1010.9 hPa | 0 mm | - | 0 W/m² | - |
* Rain latest hour (hover to see other rain measurements)
** Current wind speed in m/s (hover to see current wind gust speed)